Location: Asheville, NC
(35.6000°N, 82.5500°W)
Time: 03:06:32
(UTC-05:00)

Vanguard 2 Rocket - Pass Details

Date: 12 December 2017
Orbit: 556 x 3326 km, 32.9° (Epoch: 21 January)

Event Time Altitude Azimuth Distance (km) Brightness Sun altitude
Rises 22:51:40 0° 271° (W) 6,057 11.4 -66.4°
Reaches altitude 10° 22:55:08 10° 271° (W) 5,332 11.0 -67.0°
Enters shadow 23:01:05 31° 268° (W) 4,248 10.2 -68.1°
